Back to catalog

SL-8 R/B

AliveLEO
NORAD 17146·ROCKET BODY·🇷🇺 Russia

Launched Nov 21, 1986 from Plesetsk Cosmodrome

Loading…

Next Passes (next 24 hours)

TLE

FreshSource: Space-Track

Epoch: Sep 14, 2026, 21:25 UTC

1 17146U 86092J   26257.89282534  .00000052  00000-0  60263-3 0  9994
2 17146  74.0146  46.8088 0124416   3.5014 164.5196 12.23672463778682

Track SL-8 R/B in real time with AllMySat

Download on the App Store